| time (UTC) | temp F | wind direction | speed MPH | gust MPH | rain 1hr in | rain 24hr in | rain mn in | humidity % | barometer mb |
| 20260906004609 | 65 | 0 | 1.0 | 5.0 | 0.00 | 0.00 | 0.00 | 72 | 1016.0 |
| 20260906003109 | 65 | 67 | 1.0 | 6.0 | 0.00 | 0.00 | 0.00 | 72 | 1015.9 |
| 20260906001602 | 66 | 9 | 1.0 | 5.0 | 0.00 | 0.00 | 0.00 | 70 | 1016.1 |
| 20260906000109 | 66 | 11 | 0.0 | 4.0 | 0.00 | 0.00 | 0.00 | 69 | 1016.1 |
| 20260905234602 | 67 | 0 | 0.0 | 4.0 | 0.00 | 0.02 | 0.00 | 72 | 1015.8 |
| 20260905233106 | 67 | 360 | 0.0 | 4.0 | 0.00 | 0.02 | 0.00 | 66 | 1016.1 |
| 20260905231601 | 66 | 319 | 0.0 | 3.0 | 0.00 | 0.02 | 0.00 | 65 | 1016.4 |
| 20260905230110 | 66 | 321 | 1.0 | 4.0 | 0.00 | 0.02 | 0.00 | 67 | 1016.4 |
| 20260905224609 | 66 | 352 | 2.0 | 3.0 | 0.00 | 0.15 | 0.00 | 71 | 1016.4 |
| 20260905223100 | 66 | 352 | 1.0 | 3.0 | 0.00 | 0.15 | 0.00 | 69 | 1016.4 |
| 20260905221606 | 66 | 0 | 1.0 | 4.0 | 0.00 | 0.15 | 0.00 | 74 | 1016.5 |
| 20260905220121 | 65 | 0 | 0.0 | 2.0 | 0.00 | 0.15 | 0.00 | 76 | 1016.4 |
| 20260905214600 | 65 | 9 | 0.0 | 4.0 | 0.00 | 0.52 | 0.00 | 78 | 1016.5 |
| 20260905213107 | 65 | 5 | 2.0 | 5.0 | 0.00 | 0.52 | 0.00 | 74 | 1016.4 |
| 20260905211609 | 65 | 316 | 2.0 | 5.0 | 0.00 | 0.52 | 0.00 | 76 | 1016.4 |
| 20260905210107 | 64 | 5 | 2.0 | 8.0 | 0.00 | 0.52 | 0.00 | 74 | 1016.5 |
| 20260905204600 | 64 | 303 | 2.0 | 6.0 | 0.00 | 0.52 | 0.00 | 76 | 1016.6 |
| 20260905203105 | 63 | 335 | 2.0 | 8.0 | 0.00 | 0.52 | 0.00 | 79 | 1016.6 |
| 20260905201618 | 62 | 311 | 3.0 | 8.0 | 0.00 | 0.52 | 0.00 | 81 | 1016.6 |
| 20260905200101 | 62 | 295 | 3.0 | 8.0 | 0.00 | 0.52 | 0.00 | 81 | 1016.7 |
| 20260905194602 | 61 | 346 | 2.0 | 8.0 | 0.00 | 0.52 | 0.00 | 85 | 1016.8 |
| 20260905193059 | 61 | 331 | 2.0 | 8.0 | 0.00 | 0.52 | 0.00 | 86 | 1017.0 |
| 20260905191605 | 59 | 344 | 2.0 | 5.0 | 0.00 | 0.52 | 0.00 | 89 | 1017.1 |
| 20260905190114 | 57 | 286 | 1.0 | 5.0 | 0.00 | 0.52 | 0.00 | 92 | 1017.3 |
| 20260905184604 | 56 | 348 | 1.0 | 5.0 | 0.00 | 0.52 | 0.00 | 93 | 1017.4 |
| 20260905183124 | 56 | 67 | 1.0 | 3.0 | 0.00 | 0.52 | 0.00 | 96 | 1017.4 |
| 20260905181606 | 55 | 0 | 0.0 | 3.0 | 0.00 | 0.52 | 0.00 | 99 | 1017.6 |
| 20260905180103 | 54 | 0 | 0.0 | 0.0 | 0.00 | 0.52 | 0.00 | 99 | 1017.6 |
| 20260905174602 | 54 | 0 | 0.0 | 0.0 | 0.00 | 0.52 | 0.00 | 100 | 1017.6 |
| 20260905173058 | 54 | 0 | 0.0 | 0.0 | 0.00 | 0.52 | 0.00 | 100 | 1017.6 |
| 20260905171604 | 54 | 0 | 0.0 | 0.0 | 0.00 | 0.52 | 0.00 | 100 | 1017.6 |
| 20260905170104 | 55 | 0 | 0.0 | 0.0 | 0.00 | 0.52 | 0.00 | 100 | 1017.6 |
| 20260905164607 | 55 | 0 | 0.0 | 0.0 | 0.00 | 0.52 | 0.00 | 100 | 1017.6 |
| 20260905163058 | 54 | 0 | 0.0 | 0.0 | 0.00 | 0.52 | 0.00 | 100 | 1017.5 |
| 20260905161605 | 53 | 0 | 0.0 | 0.0 | 0.00 | 0.52 | 0.00 | 100 | 1017.6 |
| 20260905160123 | 53 | 0 | 0.0 | 0.0 | 0.00 | 0.52 | 0.00 | 100 | 1017.8 |
| 20260905154601 | 52 | 0 | 0.0 | 0.0 | 0.00 | 0.52 | 0.00 | 100 | 1017.8 |
| 20260905153106 | 51 | 0 | 0.0 | 0.0 | 0.00 | 0.52 | 0.00 | 100 | 1017.7 |
| 20260905151610 | 50 | 0 | 0.0 | 0.0 | 0.00 | 0.52 | 0.00 | 99 | 1017.8 |
| 20260905150100 | 50 | 0 | 0.0 | 0.0 | 0.00 | 0.52 | 0.00 | 100 | 1017.8 |
| 20260905144600 | 49 | 0 | 0.0 | 0.0 | 0.00 | 0.54 | 0.00 | 99 | 1017.8 |
| 20260905143059 | 49 | 0 | 0.0 | 0.0 | 0.00 | 0.54 | 0.00 | 99 | 1017.6 |
| 20260905141605 | 49 | 0 | 0.0 | 0.0 | 0.00 | 0.54 | 0.00 | 99 | 1017.7 |
| 20260905140109 | 49 | 0 | 0.0 | 0.0 | 0.00 | 0.54 | 0.00 | 99 | 1017.6 |
| 20260905134559 | 49 | 0 | 0.0 | 0.0 | 0.00 | 0.54 | 0.00 | 99 | 1017.4 |
| 20260905133105 | 49 | 0 | 0.0 | 0.0 | 0.00 | 0.54 | 0.00 | 99 | 1017.4 |
| 20260905131609 | 49 | 0 | 0.0 | 0.0 | 0.00 | 0.54 | 0.00 | 99 | 1017.3 |
| 20260905130110 | 49 | 0 | 0.0 | 0.0 | 0.00 | 0.54 | 0.00 | 99 | 1017.1 |
| 20260905124603 | 49 | 0 | 0.0 | 0.0 | 0.00 | 0.57 | 0.00 | 99 | 1017.1 |
| 20260905123107 | 49 | 0 | 0.0 | 0.0 | 0.00 | 0.57 | 0.00 | 99 | 1017.1 |
| 20260905121601 | 49 | 0 | 0.0 | 0.0 | 0.00 | 0.57 | 0.00 | 99 | 1017.1 |
| 20260905120112 | 49 | 0 | 0.0 | 0.0 | 0.00 | 0.57 | 0.00 | 99 | 1017.0 |
| 20260905114605 | 49 | 0 | 0.0 | 0.0 | 0.00 | 0.58 | 0.00 | 99 | 1017.1 |
| 20260905113105 | 48 | 0 | 0.0 | 0.0 | 0.00 | 0.58 | 0.00 | 99 | 1016.8 |
| 20260905111613 | 48 | 0 | 0.0 | 0.0 | 0.00 | 0.58 | 0.00 | 99 | 1016.9 |
| 20260905110101 | 48 | 0 | 0.0 | 0.0 | 0.00 | 0.58 | 0.00 | 99 | 1016.9 |
| 20260905104601 | 48 | 0 | 0.0 | 1.0 | 0.00 | 0.58 | 0.00 | 99 | 1016.9 |
| 20260905103102 | 48 | 0 | 0.0 | 0.0 | 0.00 | 0.58 | 0.00 | 99 | 1017.0 |
| 20260905101605 | 48 | 0 | 0.0 | 0.0 | 0.00 | 0.58 | 0.00 | 99 | 1016.9 |
| 20260905094601 | 48 | 0 | 0.0 | 0.0 | 0.00 | 0.58 | 0.00 | 99 | 1017.0 |
| 20260905093101 | 49 | 0 | 0.0 | 0.0 | 0.00 | 0.58 | 0.00 | 99 | 1017.0 |
| 20260905091606 | 49 | 0 | 0.0 | 0.0 | 0.00 | 0.58 | 0.00 | 99 | 1016.8 |
| 20260905090059 | 49 | 0 | 0.0 | 0.0 | 0.00 | 0.58 | 0.00 | 99 | 1016.8 |
| 20260905084616 | 50 | 0 | 0.0 | 0.0 | 0.00 | 0.58 | 0.00 | 99 | 1016.6 |
| 20260905083102 | 50 | 0 | 0.0 | 0.0 | 0.00 | 0.58 | 0.00 | 99 | 1016.6 |
| 20260905081603 | 50 | 0 | 0.0 | 0.0 | 0.00 | 0.58 | 0.00 | 99 | 1016.6 |
| 20260905080059 | 50 | 0 | 0.0 | 0.0 | 0.00 | 0.58 | 0.00 | 99 | 1016.7 |
| 20260905074603 | 51 | 0 | 0.0 | 0.0 | 0.00 | 0.58 | 0.00 | 99 | 1016.6 |
| 20260905073106 | 51 | 0 | 0.0 | 1.0 | 0.00 | 0.58 | 0.00 | 99 | 1016.6 |
| 20260905071601 | 51 | 0 | 0.0 | 0.0 | 0.00 | 0.58 | 0.00 | 99 | 1016.4 |
| 20260905070105 | 51 | 0 | 0.0 | 0.0 | 0.00 | 0.58 | 0.00 | 99 | 1016.5 |
| 20260905064555 | 51 | 0 | 0.0 | 0.0 | 0.00 | 0.60 | 0.58 | 99 | 1016.2 |
| 20260905063104 | 50 | 0 | 0.0 | 2.0 | 0.00 | 0.60 | 0.58 | 99 | 1016.2 |
| 20260905061604 | 50 | 0 | 0.0 | 1.0 | 0.00 | 0.60 | 0.58 | 99 | 1016.2 |
| 20260905060101 | 50 | 0 | 0.0 | 1.0 | 0.00 | 0.60 | 0.58 | 99 | 1016.0 |
| 20260905054558 | 50 | 0 | 0.0 | 0.0 | 0.00 | 0.60 | 0.58 | 99 | 1016.2 |
| 20260905053141 | 51 | 0 | 0.0 | 1.0 | 0.00 | 0.60 | 0.58 | 99 | 1016.2 |
| 20260905051601 | 51 | 0 | 0.0 | 0.0 | 0.00 | 0.60 | 0.58 | 99 | 1016.0 |
| 20260905044559 | 51 | 0 | 0.0 | 1.0 | 0.00 | 0.60 | 0.58 | 99 | 1015.8 |
| 20260905043100 | 51 | 0 | 0.0 | 1.0 | 0.00 | 0.60 | 0.58 | 99 | 1015.9 |
| 20260905041601 | 51 | 0 | 0.0 | 0.0 | 0.00 | 0.60 | 0.58 | 98 | 1015.9 |
| 20260905040103 | 52 | 0 | 0.0 | 0.0 | 0.00 | 0.60 | 0.58 | 99 | 1015.7 |
| 20260905034605 | 52 | 0 | 0.0 | 0.0 | 0.00 | 0.60 | 0.58 | 98 | 1015.5 |
| 20260905033106 | 52 | 0 | 0.0 | 0.0 | 0.00 | 0.60 | 0.58 | 98 | 1015.4 |
| 20260905031559 | 52 | 0 | 0.0 | 1.0 | 0.00 | 0.60 | 0.58 | 98 | 1015.3 |
| 20260905024621 | 53 | 0 | 0.0 | 0.0 | 0.00 | 0.60 | 0.58 | 98 | 1015.3 |
| 20260905023123 | 54 | 0 | 0.0 | 2.0 | 0.00 | 0.60 | 0.58 | 98 | 1015.4 |
| 20260905021605 | 54 | 0 | 0.0 | 0.0 | 0.00 | 0.60 | 0.58 | 98 | 1015.4 |
| 20260905020108 | 54 | 0 | 0.0 | 1.0 | 0.00 | 0.60 | 0.58 | 98 | 1015.3 |
| 20260905014601 | 54 | 0 | 0.0 | 2.0 | 0.00 | 0.60 | 0.58 | 98 | 1015.1 |
| 20260905013104 | 54 | 0 | 0.0 | 2.0 | 0.00 | 0.60 | 0.58 | 97 | 1014.9 |
| 20260905011621 | 55 | 0 | 0.0 | 1.0 | 0.00 | 0.60 | 0.58 | 97 | 1014.9 |
| 20260905010058 | 56 | 0 | 0.0 | 1.0 | 0.00 | 0.60 | 0.58 | 98 | 1014.5 |